ヴィルト第4彗星

116P/Wild 4 (2022)

English version
Home page
Updated on May 15, 2024

---------------------------------------------------------------------

・ プロフィール

・ 写真集

・ 軌道要素

Epoch 2024 Mar. 31.0 TT = JDT 2460400.5
T 2022 July 16.65195 TT                                 Rudenko
q   2.1960831            (2000.0)            P               Q
n   0.15132463     Peri.  173.20638     -0.96945986     +0.24421630
a   3.4876238      Node    20.97066     -0.22786654     -0.86303142
e   0.3703211      Incl.    3.60352     -0.09068859     -0.44219359
P   6.51
>From 3059 observations 2014 Oct. 31-2023 Oct. 4, mean residual 0".8.

・ 星図

・ 光度変化

        m1 = 3.5 + 5 logΔ + 25.0 log r

---------------------------------------------------------------------

軌道要素はM.P.E.C. 2024-J304に掲載されたものです。
星図はステラナビゲータ Ver.10 (アストロアーツ) で作成したものです。
光度グラフはComet for Windowsで作成したものです。

---------------------------------------------------------------------

Copyright(C) Seiichi Yoshida (comet@aerith.net). All rights reserved.